EW4060 Weather Reports


Display with metric or nautical units.
time (UTC)temp
F
wind
direction
speed
MPH
gust
MPH
rain 1hr
in
rain 24hr
in
rain mn
in
humidity
%
barometer
mb
20210730143631 68 210 0.0 0.0 0.00 0.00 0.00 83 1022.6
20210730143131 67 210 0.0 0.0 0.00 0.00 0.00 83 1022.6
20210730142631 66 210 0.0 1.0 0.00 0.00 0.00 84 1022.4
20210730142131 65 210 0.0 1.0 0.00 0.00 0.00 85 1022.3
20210730141631 65 210 0.0 2.0 0.00 0.00 0.00 85 1022.3
20210730141131 64 210 0.0 2.0 0.00 0.00 0.00 85 1022.1
20210730140631 64 229 0.0 2.0 0.00 0.00 0.00 87 1022.1
20210730140131 63 229 0.0 2.0 0.00 0.00 0.00 89 1022.2
20210730135632 63 219 0.0 1.0 0.00 0.00 0.00 88 1022.5
20210730135132 62 219 0.0 1.0 0.00 0.00 0.00 91 1022.5
20210730134631 62 219 0.0 1.0 0.00 0.00 0.00 91 1022.6
20210730134132 61 221 0.0 2.0 0.00 0.00 0.00 93 1022.4
20210730133631 61 221 0.0 2.0 0.00 0.00 0.00 93 1022.4
20210730133131 61 221 2.0 2.0 0.00 0.00 0.00 94 1022.4
20210730132631 60 298 0.0 0.0 0.00 0.00 0.00 95 1022.4
20210730132132 60 298 0.0 0.0 0.00 0.00 0.00 95 1022.4
20210730131632 60 298 0.0 1.0 0.00 0.00 0.00 97 1022.3
20210730131131 59 300 0.0 1.0 0.00 0.00 0.00 97 1022.3
20210730130631 58 18 0.0 0.0 0.00 0.00 0.00 98 1022.3
20210730130131 58 18 0.0 0.0 0.00 0.00 0.00 98 1022.5
20210730125631 57 18 0.0 0.0 0.00 0.00 0.00 98 1022.6
20210730125131 57 18 0.0 0.0 0.00 0.00 0.00 99 1022.5
20210730124632 56 18 0.0 0.0 0.00 0.00 0.00 99 1022.4
20210730124131 56 18 0.0 0.0 0.00 0.00 0.00 99 1022.5
20210730123631 55 18 0.0 0.0 0.00 0.00 0.00 99 1022.5
20210730123131 55 18 0.0 0.0 0.00 0.00 0.00 99 1022.5
20210730122631 54 18 0.0 0.0 0.00 0.00 0.00 99 1022.7
20210730122131 53 18 0.0 0.0 0.00 0.00 0.00 98 1022.6
20210730121633 52 18 0.0 0.0 0.00 0.00 0.00 98 1022.3
20210730121132 52 18 0.0 0.0 0.00 0.00 0.00 98 1022.3
20210730120632 51 18 0.0 0.0 0.00 0.00 0.00 98 1022.4
20210730120131 51 18 0.0 0.0 0.00 0.00 0.00 97 1022.4
20210730115631 51 18 0.0 0.0 0.00 0.00 0.00 97 1022.4
20210730115132 50 18 0.0 0.0 0.00 0.00 0.00 97 1022.4
20210730114632 50 18 0.0 0.0 0.00 0.00 0.00 97 1022.3
20210730114131 50 18 0.0 0.0 0.00 0.01 0.00 97 1022.3
20210730113631 50 18 0.0 0.0 0.00 0.01 0.00 97 1022.2
20210730113131 50 18 0.0 0.0 0.00 0.01 0.00 97 1022.2
20210730112631 49 18 0.0 0.0 0.00 0.01 0.00 97 1022.1
20210730112131 49 18 0.0 0.0 0.00 0.01 0.00 97 1022.1
20210730111632 49 18 0.0 0.0 0.00 0.01 0.00 96 1022.1
20210730111131 49 18 0.0 0.0 0.00 0.01 0.00 96 1022.0
20210730110631 49 18 0.0 0.0 0.00 0.01 0.00 96 1022.0
20210730110131 49 18 0.0 0.0 0.00 0.01 0.00 96 1022.1
20210730105631 49 18 0.0 0.0 0.00 0.01 0.00 96 1022.0
20210730105131 49 18 0.0 0.0 0.00 0.01 0.00 96 1021.7
20210730104631 49 18 0.0 0.0 0.00 0.01 0.00 96 1021.7
20210730104131 50 18 0.0 0.0 0.00 0.01 0.00 96 1021.7
20210730103631 50 18 0.0 0.0 0.00 0.01 0.00 96 1021.8
20210730103131 50 18 0.0 0.0 0.00 0.01 0.00 96 1021.7
20210730102631 50 18 0.0 0.0 0.00 0.01 0.00 96 1021.6
20210730102131 50 18 0.0 0.0 0.00 0.01 0.00 96 1021.7
20210730101631 50 18 0.0 0.0 0.00 0.01 0.00 96 1021.5
20210730101131 50 18 0.0 0.0 0.00 0.01 0.00 96 1021.4
20210730100631 50 18 0.0 0.0 0.00 0.01 0.00 96 1021.3
20210730100131 50 18 0.0 0.0 0.00 0.01 0.00 96 1021.3
20210730095631 50 18 0.0 0.0 0.00 0.01 0.00 96 1021.2
20210730095131 50 18 0.0 0.0 0.00 0.01 0.00 96 1021.1
20210730094631 50 18 0.0 0.0 0.00 0.01 0.00 96 1021.1
20210730094131 50 18 0.0 0.0 0.00 0.01 0.00 96 1021.2
20210730093631 51 18 0.0 0.0 0.00 0.01 0.00 96 1021.4
20210730093131 51 18 0.0 0.0 0.00 0.01 0.00 96 1021.3
20210730092631 51 18 0.0 0.0 0.00 0.01 0.00 96 1021.2
20210730092131 51 18 0.0 0.0 0.00 0.01 0.00 96 1021.2
20210730091631 51 18 0.0 0.0 0.00 0.01 0.00 96 1021.1
20210730091131 51 18 0.0 0.0 0.00 0.01 0.00 96 1021.2
20210730090631 51 18 0.0 0.0 0.00 0.01 0.00 96 1021.3
20210730090131 51 18 0.0 0.0 0.00 0.01 0.00 96 1021.3
20210730085631 51 18 0.0 0.0 0.00 0.01 0.00 96 1021.0
20210730085131 51 18 0.0 0.0 0.00 0.01 0.00 96 1021.0
20210730084631 51 18 0.0 0.0 0.00 0.01 0.00 96 1021.1
20210730084131 51 18 0.0 0.0 0.00 0.01 0.00 95 1021.1
20210730083631 51 18 0.0 0.0 0.00 0.01 0.00 96 1021.1
20210730083131 51 18 0.0 0.0 0.00 0.01 0.00 95 1021.1
20210730082631 51 18 0.0 0.0 0.00 0.01 0.00 95 1021.2
20210730082131 52 18 0.0 0.0 0.00 0.01 0.00 96 1021.1
20210730081631 52 18 0.0 0.0 0.00 0.01 0.00 96 1021.1
20210730081131 52 18 0.0 0.0 0.00 0.01 0.00 95 1021.2
20210730080632 52 18 0.0 0.0 0.00 0.01 0.00 95 1021.0
20210730080131 52 18 0.0 0.0 0.00 0.01 0.00 95 1021.0
20210730075631 52 18 0.0 0.0 0.00 0.01 0.00 95 1021.0
20210730075131 52 18 0.0 0.0 0.00 0.01 0.00 95 1021.0
20210730074631 52 18 0.0 0.0 0.00 0.01 0.00 95 1020.9
20210730074131 52 18 0.0 0.0 0.00 0.01 0.00 95 1020.8
20210730073631 53 18 0.0 0.0 0.00 0.01 0.00 95 1020.8
20210730073131 53 18 0.0 0.0 0.00 0.01 0.00 95 1020.7
20210730072631 53 18 0.0 0.0 0.00 0.01 0.00 95 1020.8
20210730072131 53 18 0.0 0.0 0.00 0.01 0.00 95 1020.8
20210730071631 53 18 0.0 0.0 0.00 0.01 0.00 94 1020.8
20210730071131 54 18 0.0 0.0 0.00 0.01 0.00 95 1020.9
20210730070631 54 18 0.0 0.0 0.00 0.01 0.00 95 1020.8
20210730070131 54 18 0.0 0.0 0.00 0.01 0.00 95 1020.9
20210730065631 54 18 0.0 0.0 0.00 0.01 0.00 95 1020.8
20210730065131 54 18 0.0 0.0 0.00 0.01 0.00 96 1020.7
20210730064631 54 18 0.0 0.0 0.00 0.01 0.00 96 1020.6
20210730064131 53 18 0.0 0.0 0.00 0.01 0.00 96 1020.6
20210730063631 53 18 0.0 0.0 0.00 0.01 0.00 96 1020.6
20210730063131 53 18 0.0 0.0 0.00 0.01 0.00 96 1020.6
20210730062631 52 18 0.0 0.0 0.00 0.01 0.00 95 1020.4
20210730062131 52 18 0.0 0.0 0.00 0.01 0.00 95 1020.5
20210730061631 52 18 0.0 0.0 0.00 0.01 0.00 94 1020.3
20210730061131 52 18 0.0 0.0 0.00 0.01 0.00 95 1020.3
20210730060631 53 18 0.0 0.0 0.00 0.01 0.00 94 1020.4
20210730060131 53 18 0.0 0.0 0.00 0.01 0.00 94 1020.5
20210730055631 53 18 0.0 0.0 0.00 0.01 0.00 94 1020.4
20210730055131 53 18 0.0 0.0 0.00 0.01 0.00 93 1020.3
20210730054631 53 18 0.0 0.0 0.00 0.01 0.00 93 1020.3
20210730054131 54 18 0.0 0.0 0.00 0.01 0.00 93 1020.4
20210730053631 54 18 0.0 0.0 0.00 0.01 0.00 93 1020.4
20210730053131 54 18 0.0 0.0 0.00 0.01 0.00 93 1020.3
20210730052630 54 18 0.0 0.0 0.00 0.01 0.00 94 1020.3
20210730052131 55 18 0.0 0.0 0.00 0.01 0.00 94 1020.3
20210730051631 55 18 0.0 0.0 0.00 0.01 0.00 94 1020.4
20210730051131 55 18 0.0 0.0 0.00 0.01 0.00 94 1020.3
20210730050631 55 18 0.0 0.0 0.00 0.01 0.00 94 1020.3
20210730050131 55 18 0.0 0.0 0.00 0.01 0.00 94 1020.4
20210730045630 55 18 0.0 0.0 0.00 0.01 0.01 94 1020.3
20210730045131 55 18 0.0 0.0 0.00 0.01 0.01 94 1020.3
20210730044631 55 18 0.0 0.0 0.00 0.01 0.01 93 1020.4
20210730044131 55 18 0.0 0.0 0.00 0.01 0.01 94 1020.3
20210730043631 56 18 0.0 0.0 0.00 0.01 0.01 93 1020.2
20210730043131 56 18 0.0 0.0 0.00 0.01 0.01 93 1020.2
20210730042631 56 18 0.0 0.0 0.00 0.01 0.01 93 1020.2
20210730042131 56 18 0.0 0.0 0.00 0.01 0.01 93 1020.1
20210730041630 56 18 0.0 0.0 0.00 0.01 0.01 93 1020.2
20210730041131 56 18 0.0 0.0 0.00 0.01 0.01 93 1020.1
20210730040631 57 18 0.0 0.0 0.00 0.01 0.01 93 1020.0
20210730040131 57 18 0.0 0.0 0.00 0.01 0.01 93 1020.2
20210730035630 57 18 0.0 0.0 0.00 0.01 0.01 92 1020.0
20210730035131 57 18 0.0 0.0 0.00 0.01 0.01 92 1019.9
20210730034631 58 18 0.0 0.0 0.00 0.01 0.01 92 1020.0
20210730034131 58 18 0.0 0.0 0.00 0.01 0.01 92 1020.2
20210730033631 58 18 0.0 0.0 0.00 0.01 0.01 91 1020.1
20210730033131 58 18 0.0 0.0 0.00 0.01 0.01 92 1020.1
20210730032631 58 18 0.0 0.0 0.00 0.01 0.01 91 1019.9
20210730032131 59 18 0.0 0.0 0.00 0.01 0.01 91 1019.8
20210730031631 59 18 0.0 0.0 0.00 0.01 0.01 90 1019.9
20210730031131 59 18 0.0 0.0 0.00 0.01 0.01 90 1019.7
20210730030631 59 18 0.0 0.0 0.00 0.01 0.01 90 1019.7
20210730030131 60 18 0.0 0.0 0.00 0.01 0.01 89 1019.8
20210730025631 60 18 0.0 0.0 0.00 0.01 0.01 89 1019.4
20210730025130 60 18 0.0 0.0 0.00 0.01 0.01 88 1019.5
20210730024631 60 18 0.0 0.0 0.00 0.01 0.01 88 1019.4
20210730024131 61 18 0.0 0.0 0.00 0.01 0.01 89 1019.5
20210730023631 61 18 0.0 0.0 0.00 0.01 0.01 88 1019.5
20210730023131 61 18 0.0 0.0 0.00 0.01 0.01 87 1019.5
20210730022631 62 18 0.0 0.0 0.00 0.01 0.01 88 1019.3
20210730022131 62 18 0.0 0.0 0.00 0.01 0.01 87 1019.4
20210730021630 62 18 0.0 0.0 0.00 0.01 0.01 86 1019.3
20210730021130 63 18 0.0 0.0 0.00 0.01 0.01 86 1019.4
20210730020630 63 18 0.0 0.0 0.00 0.01 0.01 86 1019.3
20210730020130 64 18 0.0 0.0 0.00 0.01 0.01 85 1019.3
20210730015630 64 18 0.0 0.0 0.00 0.01 0.01 84 1019.1
20210730015131 64 18 0.0 0.0 0.00 0.01 0.01 84 1019.0
20210730014631 65 18 0.0 0.0 0.00 0.01 0.01 82 1019.0
20210730014130 65 18 0.0 0.0 0.00 0.01 0.01 84 1018.9
20210730013631 66 18 0.0 0.0 0.00 0.01 0.01 80 1019.0
20210730013130 66 18 0.0 0.0 0.00 0.01 0.01 78 1019.0
20210730012631 66 18 0.0 0.0 0.00 0.01 0.01 76 1019.0
20210730012130 67 18 0.0 0.0 0.00 0.01 0.01 78 1018.9
20210730011630 67 18 0.0 0.0 0.00 0.01 0.01 75 1018.9
20210730011130 68 18 0.0 0.0 0.00 0.01 0.01 75 1018.9
20210730010631 68 18 0.0 0.0 0.00 0.01 0.01 73 1019.1
20210730010130 69 18 0.0 0.0 0.00 0.01 0.01 75 1019.0
20210730005630 69 18 0.0 0.0 0.00 0.01 0.01 73 1018.8
20210730005131 69 18 0.0 0.0 0.00 0.01 0.01 73 1018.8
20210730004631 70 18 0.0 0.0 0.00 0.01 0.01 73 1018.8
20210730004131 70 18 0.0 0.0 0.00 0.01 0.01 74 1018.7
20210730003630 71 18 0.0 0.0 0.00 0.01 0.01 74 1018.8
20210730003131 71 18 0.0 0.0 0.00 0.01 0.01 70 1018.9
20210730002631 71 18 0.0 0.0 0.00 0.01 0.01 70 1018.9
20210730002130 72 18 0.0 0.0 0.00 0.01 0.01 68 1018.9
20210730001631 73 18 0.0 0.0 0.00 0.01 0.01 70 1018.9
20210730001130 73 18 0.0 0.0 0.00 0.01 0.01 62 1018.8
20210730000631 74 18 0.0 0.0 0.00 0.01 0.01 68 1019.0
20210730000130 74 18 0.0 0.0 0.00 0.01 0.01 65 1018.9
20210729235631 74 18 0.0 0.0 0.00 0.01 0.01 59 1018.7
20210729235130 75 18 0.0 0.0 0.00 0.01 0.01 58 1018.7
20210729234631 75 17 0.0 7.0 0.00 0.01 0.01 57 1018.6
20210729234131 75 15 0.0 7.0 0.00 0.01 0.01 55 1018.7
20210729233630 75 17 0.0 3.0 0.00 0.01 0.01 59 1018.6
20210729233130 75 16 0.0 5.0 0.00 0.01 0.01 56 1018.5
20210729232630 75 13 0.0 5.0 0.00 0.01 0.01 55 1018.6
20210729232130 75 24 0.0 10.0 0.00 0.01 0.01 59 1018.6
20210729231630 75 18 4.0 10.0 0.00 0.01 0.01 57 1018.5
20210729231131 75 29 5.0 9.0 0.00 0.01 0.01 57 1018.5
20210729230631 75 15 0.0 9.0 0.00 0.01 0.01 59 1018.5
20210729230130 75 16 0.0 8.0 0.00 0.01 0.01 61 1018.5
20210729225630 75 12 5.0 8.0 0.00 0.01 0.01 61 1018.4
20210729225130 75 14 1.0 8.0 0.00 0.01 0.01 58 1018.4
20210729224630 75 15 2.0 8.0 0.00 0.01 0.01 60 1018.3
20210729224130 75 360 0.0 6.0 0.00 0.01 0.01 61 1018.4
20210729223630 75 5 0.0 8.0 0.00 0.01 0.01 61 1018.3
20210729223130 75 360 0.0 8.0 0.00 0.01 0.01 61 1018.3
20210729222630 75 15 4.0 9.0 0.00 0.01 0.01 59 1018.4
20210729222130 75 5 3.0 9.0 0.00 0.01 0.01 60 1018.3
20210729221630 75 5 6.0 8.0 0.00 0.01 0.01 57 1018.4
20210729221130 75 12 8.0 8.0 0.00 0.01 0.01 60 1018.4
20210729220630 75 360 0.0 5.0 0.00 0.01 0.01 63 1018.4
20210729220130 75 5 0.0 6.0 0.00 0.01 0.01 65 1018.6
20210729215630 75 13 0.0 6.0 0.00 0.01 0.01 66 1018.5
20210729215130 75 26 0.0 7.0 0.00 0.01 0.01 66 1018.5
20210729214631 75 5 0.0 8.0 0.00 0.01 0.01 68 1018.6
20210729214130 75 17 5.0 10.0 0.00 0.01 0.01 65 1018.5
20210729213630 75 351 2.0 10.0 0.00 0.01 0.01 68 1018.5
20210729213130 74 5 5.0 8.0 0.00 0.01 0.01 67 1018.5
20210729212630 74 360 4.0 8.0 0.00 0.01 0.01 70 1018.5
20210729212130 74 17 0.0 8.0 0.00 0.01 0.01 71 1018.6
20210729211630 74 23 0.0 5.0 0.00 0.01 0.01 75 1018.5
20210729211130 74 21 4.0 5.0 0.00 0.01 0.01 73 1018.6
20210729210630 73 24 0.0 0.0 0.00 0.01 0.01 73 1018.5
20210729210131 73 15 0.0 0.0 0.00 0.01 0.01 75 1018.5
20210729205630 73 15 0.0 4.0 0.00 0.01 0.01 73 1018.6
20210729205130 73 13 0.0 4.0 0.00 0.01 0.01 73 1018.5
20210729204630 73 13 0.0 3.0 0.00 0.01 0.01 74 1018.5
20210729204130 73 13 0.0 5.0 0.00 0.01 0.01 72 1018.6
20210729203630 73 13 0.0 5.0 0.00 0.01 0.01 73 1018.5
20210729203130 73 17 0.0 6.0 0.00 0.01 0.01 73 1018.5
20210729202630 73 14 0.0 6.0 0.00 0.01 0.01 72 1018.6
20210729202131 73 13 0.0 7.0 0.00 0.01 0.01 74 1018.5
20210729201630 73 19 0.0 8.0 0.00 0.01 0.01 73 1018.5
20210729201130 73 23 2.0 9.0 0.00 0.01 0.01 74 1018.3
20210729200630 74 5 5.0 9.0 0.00 0.01 0.01 73 1018.5
20210729200130 74 24 2.0 9.0 0.00 0.01 0.01 74 1018.4
20210729195630 74 5 5.0 11.0 0.00 0.01 0.01 74 1018.4
20210729195130 74 11 8.0 11.0 0.00 0.01 0.01 74 1018.3
20210729194630 74 11 8.0 11.0 0.00 0.01 0.01 72 1018.2
20210729194130 74 23 6.0 10.0 0.00 0.01 0.01 73 1018.2
20210729193630 74 14 8.0 10.0 0.00 0.01 0.01 77 1018.2
20210729193131 74 26 4.0 10.0 0.00 0.01 0.01 75 1018.2
20210729192630 74 5 9.0 10.0 0.00 0.01 0.01 74 1018.2
20210729192130 74 24 6.0 10.0 0.00 0.01 0.01 73 1018.3
20210729191630 75 17 7.0 10.0 0.00 0.01 0.01 73 1018.3
20210729191130 75 10 8.0 10.0 0.00 0.01 0.01 72 1018.2
20210729190630 75 355 6.0 9.0 0.00 0.01 0.01 73 1018.2
20210729190130 75 11 5.0 10.0 0.00 0.01 0.01 72 1018.3
20210729185630 75 16 8.0 10.0 0.00 0.01 0.01 73 1018.3
20210729185130 76 5 6.0 10.0 0.00 0.01 0.01 71 1018.3
20210729184630 76 5 3.0 9.0 0.00 0.01 0.01 70 1018.3
20210729184130 76 24 8.0 12.0 0.00 0.01 0.01 70 1018.2
20210729183630 76 11 3.0 12.0 0.00 0.01 0.01 69 1018.1
20210729183130 77 18 7.0 11.0 0.00 0.01 0.01 69 1018.1
20210729182630 77 12 0.0 8.0 0.00 0.01 0.01 69 1018.1
20210729182130 76 5 0.0 9.0 0.00 0.01 0.01 70 1018.1
20210729181630 76 360 1.0 9.0 0.00 0.01 0.01 72 1018.1
20210729181130 76 9 0.0 9.0 0.00 0.01 0.01 71 1018.1
20210729180630 76 5 0.0 10.0 0.00 0.01 0.01 68 1018.1
20210729180130 76 5 5.0 10.0 0.00 0.01 0.01 70 1018.1
20210729175630 76 19 3.0 8.0 0.00 0.01 0.01 70 1018.0
20210729175130 76 5 4.0 8.0 0.00 0.03 0.01 70 1017.9
20210729174630 76 5 0.0 9.0 0.00 0.03 0.01 71 1018.0
20210729174130 75 5 3.0 9.0 0.00 0.03 0.01 74 1018.0
20210729173630 75 14 0.0 9.0 0.00 0.04 0.01 74 1018.0
20210729173130 76 19 7.0 9.0 0.00 0.04 0.01 75 1017.9
20210729172630 76 18 0.0 5.0 0.00 0.05 0.01 79 1017.9
20210729172130 75 18 0.0 7.0 0.00 0.05 0.01 77 1017.9
20210729171630 75 20 0.0 8.0 0.00 0.05 0.01 78 1017.8
20210729171130 75 19 5.0 8.0 0.00 0.05 0.01 76 1017.8
20210729170630 75 40 0.0 0.0 0.00 0.05 0.01 78 1017.8
20210729170130 74 23 0.0 3.0 0.00 0.05 0.01 77 1017.7
20210729165630 74 12 0.0 7.0 0.00 0.05 0.01 79 1017.8
20210729165131 74 5 0.0 7.0 0.00 0.05 0.01 78 1017.8
20210729164630 74 9 0.0 8.0 0.00 0.05 0.01 76 1017.8
20210729164130 74 24 5.0 8.0 0.00 0.05 0.01 77 1017.9
20210729163630 74 5 0.0 7.0 0.00 0.05 0.01 77 1017.9
20210729163130 74 15 0.0 7.0 0.00 0.05 0.01 79 1017.8
20210729162630 73 5 0.0 7.0 0.00 0.05 0.01 80 1017.8
20210729162130 73 15 0.0 8.0 0.00 0.05 0.01 84 1017.8
20210729161630 73 26 2.0 8.0 0.00 0.05 0.01 82 1017.9
20210729161130 73 20 0.0 7.0 0.00 0.05 0.01 83 1017.8
20210729160630 72 10 3.0 7.0 0.00 0.05 0.01 83 1017.7
20210729160130 72 24 0.0 7.0 0.00 0.05 0.01 84 1017.7
20210729155630 72 15 0.0 7.0 0.00 0.05 0.01 84 1017.6
20210729155130 72 15 0.0 7.0 0.00 0.05 0.01 85 1017.6
20210729154630 71 14 0.0 5.0 0.00 0.05 0.01 84 1017.5
20210729154130 71 19 0.0 5.0 0.00 0.05 0.01 87 1017.5
20210729153630 71 16 0.0 7.0 0.00 0.05 0.01 85 1017.5
20210729153130 71 18 2.0 7.0 0.00 0.05 0.01 86 1017.5
20210729152630 70 13 0.0 5.0 0.00 0.05 0.01 86 1017.5
20210729152130 70 17 2.0 8.0 0.00 0.05 0.01 86 1017.6
20210729151630 70 14 0.0 8.0 0.00 0.05 0.01 87 1017.5
20210729151130 70 26 5.0 8.0 0.00 0.05 0.01 86 1017.5
20210729150630 70 20 7.0 8.0 0.00 0.05 0.01 87 1017.4
20210729150130 69 16 3.0 4.0 0.00 0.05 0.01 88 1017.3
20210729145630 69 14 3.0 8.0 0.00 0.05 0.01 90 1017.3
20210729145130 69 13 0.0 8.0 0.00 0.05 0.01 89 1017.3
20210729144630 69 21 3.0 5.0 0.00 0.05 0.01 90 1017.4
20210729144130 69 19 2.0 5.0 0.00 0.05 0.01 92 1017.3